Vorticity
8 -0 -3 10 20 10 7 6 3 11 3 3 14 6 9 15 3 1 3 4 10 12 13 10 7 6 7 9 8 7 4 6 7 6 6 4 5 5 7 8 6 6 6 6 5 5 5 5 6 6 6 6
10 3 -5 3 17 11 12 22 14 9 8 6 14 7 1 12 12 2 -4 1 4 1 6 10 9 7 8 9 8 8 5 7 7 7 7 6 5 4 6 8 7 7 6 7 6 5 5 5 5 5 6 6
12 9 -5 -8 6 6 3 14 13 11 15 5 5 9 -2 -5 9 10 -0 2 2 -2 2 6 6 6 7 10 8 7 7 8 8 8 7 6 8 6 6 8 8 8 6 7 6 5 5 5 6 5 6 6
17 15 1 -11 0 14 10 6 14 19 18 14 5 2 9 10 15 18 10 5 2 -2 1 3 5 5 4 8 8 7 8 9 8 9 7 6 7 8 7 7 8 8 7 7 6 6 5 5 6 6 5 5
21 21 9 -10 -8 18 23 2 6 16 14 23 11 -2 19 27 17 15 13 9 9 6 -2 -1 7 5 3 5 5 5 8 9 8 8 7 7 8 8 7 7 8 8 8 7 7 6 5 6 5 5 5 5
24 24 15 -4 -8 14 27 1 -2 13 9 17 14 4 15 20 20 21 13 3 6 14 5 1 8 3 2 7 5 3 6 8 7 7 7 8 8 7 6 7 9 9 9 7 7 7 5 5 5 4 5 5
29 27 12 1 8 18 30 9 -4 12 12 13 11 5 6 10 21 23 19 7 -2 10 10 4 9 6 4 6 6 4 5 7 6 6 7 9 10 8 7 7 8 8 9 9 7 7 6 5 5 5 4 5
35 33 3 -5 13 16 29 11 -18 -1 15 15 9 0 -2 1 9 13 23 18 -2 5 18 13 5 3 5 5 5 7 4 3 4 6 7 8 11 9 8 8 8 9 9 10 8 6 6 6 5 5 5 5
35 40 3 -9 10 7 21 12 -17 -3 14 14 9 2 -2 -2 6 8 17 21 1 -6 7 16 13 2 1 4 4 9 7 2 3 5 6 7 9 9 8 8 8 9 9 9 9 7 6 5 5 5 5 5
35 41 2 -12 8 2 13 21 5 4 8 10 11 8 2 1 10 9 8 17 10 -4 -11 -1 25 25 8 6 6 7 7 4 4 3 4 6 6 8 8 8 8 8 8 9 9 8 7 6 5 6 6 6
36 40 4 -19 2 6 11 27 19 2 5 11 7 6 2 -0 11 12 7 11 11 11 -1 -11 18 34 15 9 9 7 7 5 5 4 4 6 6 7 7 7 7 7 7 7 9 9 8 7 5 5 6 6
23 35 24 -16 -9 11 9 17 17 4 11 13 4 4 -1 -1 10 5 0 8 9 11 11 -3 5 19 7 5 8 5 7 6 6 4 3 5 5 7 6 6 6 6 7 5 7 10 9 8 6 6 6 5
7 19 43 13 0 20 24 21 16 11 18 13 1 -0 -7 -2 15 9 -4 -0 2 6 13 4 2 13 6 -1 5 4 5 6 5 5 5 5 6 6 6 7 6 5 6 6 5 7 9 9 7 7 6 6
6 3 38 32 2 10 37 35 14 11 19 13 2 2 -1 1 12 13 5 0 -2 2 9 6 0 10 14 6 2 2 5 6 3 4 6 5 5 6 7 6 7 6 6 6 6 5 6 8 9 8 7 7
8 1 25 27 6 12 33 26 15 17 16 13 9 9 12 11 15 19 17 7 -0 0 2 11 9 0 11 17 7 3 6 5 3 4 5 7 6 5 7 6 6 7 7 7 7 6 6 6 8 8 8 8
4 6 21 15 21 34 25 11 13 13 6 4 3 3 9 10 15 26 30 12 -1 6 -2 3 19 10 12 16 4 3 6 5 3 3 5 6 8 7 7 8 7 8 7 8 8 7 7 5 5 7 8 9
6 5 15 6 19 26 12 7 5 6 10 10 3 2 5 5 8 12 30 28 4 6 -1 -9 4 10 21 18 -3 -0 4 4 3 1 6 5 7 8 7 8 8 9 8 7 8 7 8 6 5 5 6 8
12 4 4 4 20 18 3 -1 -2 2 2 0 2 6 2 1 6 -7 2 28 14 1 1 -4 -6 -4 22 24 -3 -1 3 3 5 0 4 6 6 7 6 8 7 8 8 7 7 6 7 8 6 6 6 7
10 4 4 7 20 21 0 -13 -1 7 0 5 11 12 12 3 9 2 -9 13 19 9 6 5 0 -12 12 31 7 1 8 4 4 2 4 3 5 7 5 7 7 7 8 7 9 8 7 8 7 7 6 6
14 3 4 6 14 21 8 -9 0 13 12 23 25 13 16 10 6 11 5 7 12 14 12 12 15 -5 -5 25 17 1 4 3 2 1 4 3 2 5 4 4 4 3 5 5 6 7 7 8 8 8 7 6
24 14 5 3 9 14 15 4 -5 7 8 9 28 16 2 11 9 5 7 10 12 13 10 9 24 25 14 21 18 4 2 2 2 -1 0 4 1 1 1 0 1 1 2 3 4 5 5 5 6 6 6 6
13 21 15 10 13 9 14 8 -14 7 17 -5 23 29 -1 5 10 5 8 12 15 14 7 -5 -8 4 16 31 32 21 15 5 2 4 1 2 0 -1 1 1 3 4 4 5 5 5 5 5 6 6 6 6
-1 8 12 8 12 11 13 9 -19 1 28 -2 8 34 15 7 6 6 10 11 14 13 10 3 -10 -17 -3 38 50 23 13 10 4 5 1 0 3 4 6 5 3 3 4 5 6 6 7 8 8 8 7 7
2 -0 6 6 8 9 11 15 -9 -15 12 1 -10 9 10 5 7 3 4 8 10 10 12 8 9 6 -2 29 47 18 6 12 5 0 -0 1 3 5 7 3 0 2 4 5 7 9 9 9 9 9 9 9
10 5 8 10 8 8 8 17 11 -10 -1 5 -10 -0 16 14 13 11 9 11 8 6 12 8 8 14 5 7 20 20 20 16 7 8 10 3 -1 3 -1 -7 -1 6 7 6 5 6 5 6 7 8 11 12
12 10 9 11 8 10 8 9 18 8 -1 12 10 7 24 23 16 21 18 15 19 12 6 9 8 9 8 2 -0 11 19 12 9 17 23 15 6 1 -9 -7 7 10 7 6 4 3 4 7 8 8 9 9
10 10 9 11 7 9 12 5 14 14 -2 14 24 0 3 15 12 17 15 13 29 28 13 12 12 7 8 7 1 4 4 1 10 17 15 12 5 -6 -7 4 11 9 6 6 6 6 6 7 8 9 10 8
9 11 10 11 10 7 12 6 5 11 2 14 29 3 -2 15 9 6 7 7 21 29 26 22 20 14 7 6 5 6 5 2 13 13 -4 -5 -1 -5 1 7 7 8 8 7 8 9 8 8 8 9 10 8
8 10 11 10 11 8 13 11 1 2 -2 4 21 13 9 18 12 7 6 5 11 19 24 24 26 24 16 12 8 7 10 8 13 7 -15 -15 -5 -4 3 6 6 10 8 6 9 8 8 10 9 8 8 8
13 9 10 11 11 9 11 13 6 2 -7 -11 2 7 7 15 17 15 12 8 6 12 18 17 19 22 18 19 15 11 13 10 9 3 -8 -6 -1 1 8 10 9 10 8 7 8 8 9 11 11 11 11 10
16 13 10 9 11 11 10 12 10 9 3 -5 -2 -5 -9 5 19 21 20 17 10 12 22 22 20 21 17 16 16 15 15 16 14 9 8 9 8 11 12 9 10 12 11 9 11 14 14 12 12 13 13 12
Height
5714 5715 5716 5717 5718 5719 5720 5722 5725 5727 5728 5729 5731 5732 5735 5739 5742 5745 5746 5745 5747 5749 5752 5754 5757 5760 5761 5764 5767 5770 5772 5774 5776 5777 5779 5780 5781 5782 5782 5783 5783 5784 5785 5786 5788 5789 5790 5790 5791 5791 5792 5793
5708 5709 5711 5713 5715 5716 5716 5719 5721 5724 5725 5725 5727 5728 5731 5735 5738 5742 5742 5741 5743 5746 5748 5750 5753 5755 5757 5760 5762 5765 5768 5769 5772 5773 5775 5776 5777 5777 5777 5779 5780 5780 5782 5783 5785 5786 5787 5788 5788 5789 5789 5790
5702 5704 5706 5708 5710 5712 5712 5714 5718 5720 5720 5720 5722 5724 5727 5731 5734 5738 5738 5737 5740 5743 5745 5748 5750 5751 5753 5755 5758 5761 5763 5765 5768 5769 5771 5772 5772 5773 5773 5775 5776 5777 5778 5780 5782 5783 5784 5785 5786 5786 5787 5788
5695 5697 5700 5703 5705 5708 5709 5710 5713 5715 5714 5716 5719 5721 5724 5727 5730 5732 5732 5735 5738 5741 5743 5745 5747 5748 5750 5752 5755 5757 5759 5761 5763 5765 5767 5768 5768 5768 5769 5771 5772 5773 5775 5776 5778 5779 5781 5782 5783 5784 5784 5785
5689 5691 5694 5698 5701 5703 5705 5706 5708 5710 5710 5712 5716 5718 5721 5722 5724 5725 5727 5731 5735 5738 5741 5742 5743 5744 5747 5750 5752 5754 5756 5757 5760 5762 5763 5763 5764 5765 5766 5767 5768 5770 5771 5773 5774 5776 5778 5779 5780 5781 5782 5782
5683 5685 5689 5694 5695 5697 5700 5702 5704 5705 5706 5709 5712 5715 5717 5717 5717 5719 5722 5726 5730 5733 5736 5738 5739 5741 5744 5746 5749 5751 5753 5755 5757 5758 5758 5758 5760 5761 5762 5763 5764 5766 5767 5769 5771 5772 5774 5776 5777 5778 5779 5779
5676 5679 5685 5690 5689 5691 5695 5697 5700 5702 5703 5706 5708 5711 5712 5712 5713 5715 5718 5721 5726 5729 5731 5733 5735 5737 5740 5742 5745 5748 5751 5752 5753 5753 5754 5755 5756 5757 5758 5759 5761 5762 5764 5765 5767 5769 5771 5773 5774 5775 5776 5776
5671 5674 5680 5684 5683 5687 5690 5692 5696 5698 5700 5702 5705 5707 5708 5709 5710 5712 5715 5717 5721 5724 5726 5728 5731 5734 5736 5738 5741 5745 5747 5748 5748 5749 5751 5752 5753 5754 5755 5755 5757 5758 5760 5762 5764 5766 5768 5769 5771 5772 5773 5773
5665 5669 5675 5678 5679 5682 5685 5688 5692 5694 5696 5698 5702 5705 5704 5705 5707 5710 5712 5714 5717 5718 5721 5724 5727 5730 5731 5733 5737 5741 5743 5744 5745 5747 5748 5749 5749 5750 5751 5752 5753 5755 5757 5758 5760 5762 5764 5766 5767 5769 5770 5771
5661 5664 5669 5673 5675 5678 5680 5683 5687 5689 5693 5695 5698 5701 5702 5703 5704 5706 5708 5710 5713 5715 5717 5720 5723 5725 5726 5729 5733 5736 5739 5740 5742 5744 5745 5746 5746 5747 5748 5749 5750 5751 5753 5755 5757 5759 5760 5762 5764 5765 5766 5767
5657 5661 5664 5667 5671 5674 5676 5679 5682 5685 5688 5691 5694 5696 5698 5698 5699 5703 5706 5707 5709 5712 5714 5716 5719 5720 5722 5725 5729 5732 5734 5736 5738 5740 5741 5742 5743 5744 5745 5746 5747 5748 5750 5752 5754 5755 5757 5759 5760 5762 5763 5764
5653 5657 5659 5663 5667 5670 5672 5675 5678 5681 5684 5687 5690 5691 5693 5694 5696 5700 5703 5704 5705 5709 5712 5713 5716 5717 5718 5721 5724 5728 5730 5732 5734 5736 5737 5739 5740 5741 5742 5743 5744 5745 5747 5748 5750 5752 5754 5755 5757 5758 5760 5761
5650 5653 5656 5660 5664 5666 5668 5671 5674 5678 5680 5683 5686 5688 5690 5691 5693 5696 5699 5700 5702 5704 5707 5710 5712 5714 5715 5716 5720 5724 5726 5728 5730 5731 5733 5735 5737 5738 5739 5740 5741 5742 5743 5745 5747 5748 5750 5752 5753 5755 5756 5758
5648 5650 5653 5656 5660 5662 5664 5667 5671 5674 5677 5680 5683 5686 5688 5689 5690 5692 5695 5697 5698 5699 5702 5705 5708 5710 5712 5712 5715 5719 5722 5724 5726 5728 5730 5731 5733 5734 5735 5736 5737 5738 5740 5741 5743 5745 5747 5748 5749 5751 5753 5754
5645 5647 5650 5653 5657 5659 5661 5664 5668 5671 5673 5676 5680 5683 5684 5685 5686 5688 5690 5691 5693 5695 5698 5700 5703 5706 5709 5710 5711 5715 5718 5720 5722 5724 5726 5727 5729 5730 5732 5733 5734 5735 5736 5738 5739 5741 5743 5745 5746 5747 5749 5750
5642 5644 5647 5651 5654 5656 5658 5662 5665 5668 5670 5673 5676 5679 5680 5681 5682 5684 5685 5685 5687 5691 5693 5696 5698 5701 5705 5707 5708 5711 5714 5716 5718 5720 5722 5724 5725 5727 5728 5729 5730 5731 5733 5734 5736 5737 5739 5741 5743 5744 5745 5746
5640 5642 5645 5649 5652 5654 5656 5659 5663 5665 5668 5670 5673 5675 5675 5677 5678 5678 5678 5680 5683 5686 5689 5692 5694 5696 5700 5703 5705 5707 5710 5713 5715 5716 5718 5720 5721 5723 5724 5725 5726 5728 5729 5730 5732 5734 5735 5737 5739 5740 5741 5743
5637 5640 5642 5645 5648 5651 5654 5657 5660 5663 5665 5667 5669 5670 5671 5672 5673 5672 5673 5675 5678 5681 5684 5687 5690 5692 5696 5699 5701 5703 5706 5708 5711 5713 5714 5716 5717 5719 5720 5721 5722 5724 5725 5727 5728 5730 5732 5733 5734 5736 5737 5738
5635 5637 5639 5641 5644 5647 5650 5653 5655 5658 5660 5662 5664 5664 5665 5667 5668 5668 5669 5671 5674 5676 5679 5683 5685 5688 5692 5694 5696 5698 5701 5704 5706 5708 5710 5712 5714 5715 5716 5718 5719 5720 5722 5723 5725 5726 5728 5729 5731 5732 5733 5734
5632 5633 5635 5637 5640 5643 5646 5648 5649 5653 5655 5656 5658 5658 5659 5662 5664 5665 5666 5668 5670 5672 5675 5678 5680 5683 5687 5690 5692 5693 5696 5699 5702 5704 5706 5708 5710 5711 5713 5714 5715 5716 5718 5719 5721 5722 5724 5726 5727 5728 5729 5730
5629 5630 5632 5633 5636 5638 5641 5644 5645 5648 5650 5650 5652 5652 5654 5657 5659 5661 5662 5664 5666 5668 5671 5674 5677 5679 5683 5686 5687 5689 5691 5694 5697 5699 5701 5703 5706 5707 5709 5710 5711 5712 5714 5715 5717 5718 5720 5722 5723 5724 5725 5726
5626 5627 5628 5630 5632 5634 5637 5639 5641 5644 5645 5645 5647 5648 5650 5653 5655 5656 5658 5660 5662 5665 5668 5670 5672 5675 5678 5680 5681 5683 5685 5688 5691 5694 5696 5699 5701 5703 5705 5706 5707 5709 5710 5711 5713 5714 5716 5717 5719 5720 5721 5722
5623 5624 5625 5627 5628 5630 5633 5635 5637 5639 5640 5642 5644 5646 5647 5649 5651 5652 5654 5656 5658 5661 5664 5666 5669 5671 5673 5675 5677 5678 5680 5682 5685 5689 5692 5695 5697 5699 5701 5702 5704 5705 5706 5707 5708 5710 5711 5713 5714 5715 5716 5717
5621 5621 5623 5624 5626 5627 5629 5631 5632 5634 5636 5639 5641 5642 5644 5646 5647 5649 5650 5652 5654 5657 5660 5663 5665 5667 5670 5672 5674 5677 5678 5679 5682 5685 5689 5691 5693 5695 5697 5698 5700 5701 5702 5703 5704 5705 5707 5708 5709 5710 5711 5712
5618 5619 5620 5621 5623 5624 5626 5627 5628 5630 5633 5635 5636 5638 5640 5642 5643 5645 5647 5648 5650 5653 5656 5659 5661 5664 5666 5669 5671 5674 5677 5678 5680 5682 5685 5687 5689 5691 5692 5694 5695 5697 5698 5699 5700 5701 5702 5704 5705 5706 5707 5708
5615 5616 5617 5618 5619 5621 5622 5623 5625 5627 5629 5631 5632 5634 5635 5637 5639 5641 5643 5644 5646 5649 5652 5654 5657 5659 5662 5665 5667 5670 5673 5675 5677 5679 5680 5681 5683 5686 5688 5690 5691 5692 5694 5694 5695 5697 5698 5700 5701 5701 5702 5703
5611 5612 5613 5614 5616 5617 5618 5620 5621 5623 5625 5627 5629 5631 5631 5632 5635 5637 5639 5641 5642 5645 5648 5650 5652 5654 5657 5660 5663 5666 5668 5671 5673 5675 5676 5676 5678 5681 5684 5685 5687 5688 5689 5690 5691 5692 5694 5695 5696 5697 5698 5698
5608 5609 5610 5611 5612 5613 5614 5616 5617 5619 5621 5624 5626 5627 5628 5629 5630 5633 5636 5638 5639 5641 5643 5645 5647 5649 5652 5655 5658 5662 5664 5666 5669 5671 5672 5673 5674 5676 5679 5681 5682 5683 5684 5685 5686 5688 5689 5690 5692 5693 5693 5693
5604 5605 5606 5607 5608 5609 5610 5612 5613 5616 5618 5620 5622 5623 5624 5625 5627 5629 5632 5634 5636 5637 5639 5640 5642 5645 5648 5651 5654 5657 5660 5662 5664 5666 5668 5669 5670 5672 5674 5676 5678 5679 5679 5680 5682 5683 5684 5686 5687 5687 5687 5688
5599 5600 5602 5603 5604 5605 5607 5608 5610 5612 5614 5616 5618 5619 5621 5623 5624 5625 5628 5631 5633 5634 5635 5636 5638 5640 5643 5647 5650 5653 5655 5658 5660 5661 5663 5664 5666 5668 5670 5671 5673 5674 5674 5675 5677 5678 5679 5680 5681 5681 5682 5683
5594 5595 5597 5598 5600 5601 5603 5604 5606 5608 5610 5613 5615 5617 5618 5620 5621 5622 5624 5627 5629 5630 5631 5633 5634 5636 5639 5642 5645 5647 5650 5652 5654 5656 5658 5660 5662 5664 5666 5667 5668 5669 5670 5671 5672 5673 5674 5675 5675 5676 5677 5678